Weather Service Report


694 
ASUS41 KAKQ 011010
RWRAKQ

REGIONAL WEATHER ROUNDUP
NATIONAL WEATHER SERVICE WAKEFIELD VA
500 AM EST SUN MAR 01 2015

Note: "fair" indicates few or no clouds below 12,000 feet with no
significant weather and/or obstructions to visibility. * = Denotes
station may not report precipitation (e.g., rain,snow,etc.),
thunder or fog.

VAZ042-051-052>054-056-011100-
NORTHERN VIRGINIA
  
CITY           SKY/WX    TMP DP  RH WIND       PRES   REMARKS
WASH NATIONAL  CLOUDY    27  14  58 S6        30.66F                  
DULLES         CLOUDY    23  12  62 S3        30.63F                  
FORT BELVOIR   MOCLDY    24  15  66 SE5       30.66F                  
QUANTICO       CLOUDY    26  14  60 SE8       30.68S                  
FREDERICKSBRG* CLOUDY    26  17  70 CALM      30.66S                  
STAFFORD*      CLOUDY    24  13  63 SE3       30.70S                  
WARRENTON      CLOUDY    26  22  84 CALM      30.62F                  
CULPEPER*      CLOUDY    25  18  74 CALM      30.63F                  
MANASSAS*      CLOUDY    25  18  74 CALM      30.64F                  
LEESBURG*      CLOUDY    25  18  74 CALM      30.63F                  
WINCHESTER     CLOUDY    27   9  46 CALM      30.57R                  
FRONT ROYAL*   CLOUDY    23  12  63 CALM      30.56S                  
LURAY*         CLOUDY    30  18  59 S5        30.56R                  
$$

VAZ048-049-060>072-079>083-011100-
CENTRAL AND SOUTH CENTRAL VIRGINIA
  
CITY           SKY/WX    TMP DP  RH WIND       PRES   REMARKS
RICHMOND       CLOUDY    25  16  68 CALM      30.65S                  
CHESTERFIELD*  NOT AVBL                                               
PETERSBURG*    CLOUDY    27  20  75 CALM      30.65S                  
HANOVER        CLOUDY    24  15  68 CALM      30.66F                  
TAPPAHANNOCK*  MOCLDY    19  13  74 CALM      30.66F                  
QUINTON*       CLOUDY    23  17  77 CALM      30.65F                  
CHARLOTTSVILLE PTCLDY    24  13  62 S3        30.60F                  
GORDONSVILLE*  CLOUDY    23  15  71 CALM      30.62F                  
ORANGE*        CLOUDY    27  18  69 CALM      30.63F                  
LOUISA*        CLOUDY    25  18  74 CALM      30.60F                  
BUMPASS*       CLOUDY    24  14  63 CALM      30.63F                  
FARMVILLE*     CLOUDY    28  18  67 CALM      30.62F                  
CREWE*         CLOUDY    26  17  69 CALM      30.62S                  
FORT PICKETT*  CLOUDY    26  19  74 CALM      30.63R                  
CHASE CITY*    CLOUDY    29  18  63 CALM      30.62S                  
CLARKSVILLE*   CLOUDY    28  18  64 CALM      30.62R                  
SOUTH HILL*    CLOUDY    26  17  70 CALM      30.68R                  
LAWRENCEVILLE* CLOUDY    26  19  73 CALM      30.63S                  
EMPORIA*       CLOUDY    27  19  74 N3        30.65F                  
$$

VAZ088>098-011100-
SOUTHEAST VIRGINIA
  
CITY           SKY/WX    TMP DP  RH WIND       PRES   REMARKS
NORFOLK        CLOUDY    31  23  72 N7        30.64S                  
VIRGINIA BEACH CLOUDY    33  25  72 NE9       30.63S                  
NORFOLK NAVAL  CLOUDY    32  23  69 NE10      30.65F WCI  24          
WEST POINT*    CLOUDY    24  17  77 CALM      30.68F                  
SALUDA*        CLOUDY    21  18  87 E3        30.65F                  
NEWPORT NEWS   CLOUDY    28  20  71 N3        30.66S                  
LANGLEY AFB    CLOUDY    29  21  73 NE8       30.65F                  
FORT EUSTIS    CLOUDY    26  22  85 E3        30.64S                  
WILLIAMSBURG*  CLOUDY    28  23  80 NE3       30.66F                  
HR EXEC AP*    CLOUDY    28  21  74 NE5       30.66S                  
FRANKLIN*      CLOUDY    26  20  78 CALM      30.65S                  
WAKEFIELD      CLOUDY    26  20  77 NE3       30.65F                  
$$

VAZ020-022-025-037-045-011100-
WEST CENTRAL AND SOUTHWEST VIRGINIA
  
CITY           SKY/WX    TMP DP  RH WIND       PRES   REMARKS
STAUNTON*      CLOUDY    25  13  62 SW3       30.56R                  
WAYNESBORO*    CLOUDY    23  12  63 CALM      30.54R                  
HOT SPRINGS VA CLOUDY    28  19  69 SW12      30.38R WCI  18          
LYNCHBURG      CLOUDY    26  15  63 CALM      30.58F                  
DANVILLE       MIX PCPN  30  16  56 CALM      30.61F                  
SOUTH BOSTON*  CLOUDY    28  16  59 CALM      30.62F                  
MARTINSVILLE   CLOUDY    29  20  68 CALM      30.60F                  
ROANOKE        CLOUDY    28  11  48 CALM      30.58F                  
BLACKSBURG     CLOUDY    26  13  56 CALM      30.53R                  
DUBLIN*        CLOUDY    28  18  68 NE3       30.52R                  
MARION*        CLOUDY    29  19  66 E6        30.47R                  
HILLSVILLE*    CLOUDY    26  16  67 S5        30.45R                  
RICHLANDS*     CLOUDY    37  18  47 N3        30.39R                  
WISE*          CLOUDY    37  23  56 S5        30.38S                  
ABINGDON*      CLOUDY    36  22  58 E6        30.41S                  
$$

MDZ021>025-VAZ099-100-011100-
SOUTHERN MARYLAND AND THE DELMARVA PENINSULA
  
CITY           SKY/WX    TMP DP  RH WIND       PRES   REMARKS
PATUXENT RIVER MOCLDY    22  16  78 CALM      30.67S                  
BAY BRIDGE APT   N/A     25  18  74 E5        30.68S                  
LEONARDTOWN    MOCLDY    21  18  86 CALM      30.68S                  
DOVER          CLOUDY    21  17  83 NE1       30.68F                  
GEORGETOWN     CLOUDY    16  11  80 CALM      30.69F                  
EASTON         MOCLDY    23  18  79 CALM      30.71F                  
CAMBRIDGE      MOCLDY    23  16  74 CALM      30.68R                  
SALISBURY      MOCLDY    18  12  77 CALM      30.69S                  
OCEAN CITY     MOCLDY    16  12  84 CALM      30.69S                  
WALLOPS ISLAND CLEAR     21  14  74 N5        30.69S                  
ACCOMACK*      PTCLDY    18  12  79 NE5       30.67S                  
$$

NCZ012>017-030>032-011100-
NORTH CENTRAL AND EASTERN NORTH CAROLINA
  
CITY           SKY/WX    TMP DP  RH WIND       PRES   REMARKS
ROANOKE RAPIDS CLOUDY    28  21  74 N7        30.62F                  
RALEIGH        FRZ RAIN  29  20  69 NE7       30.60S FOG              
ELIZABETH CITY CLOUDY    32  26  78 N7        30.62S                  
AHOSKIE*       CLOUDY    28  20  71 N5        30.63F                  
EDENTON*       CLOUDY    30  24  79 N6        30.61F                  
CURRITUCK*     PTCLDY    33  27  79 N7        30.63R                  
KILL DEVIL HLS CLEAR     36  33  88 N7        30.58S                  
MANTEO         CLEAR     36  34  93 N12       30.59S                  
CAPE HATTERAS  MOCLDY    38  37  97 N7        30.56S                  
TARBORO*       CLOUDY    30  20  64 NE3       30.63R                  
GOLDSBORO      MIX PCPN  32  30  92 N6        30.58R                  
WASHINGTON     CLOUDY    31  22  70 N6        30.60S                  
GREENVILLE     CLOUDY    32  21  64 NE6       30.60S                  
NEW BERN       CLOUDY    33  25  72 NE7       30.58F                  
WILMINGTON     LGT RAIN  36  30  79 N9        30.55R                  
$$

VAZ048-011100-
ELSEWHERE
  
CITY           SKY/WX    TMP DP  RH WIND       PRES   REMARKS
HARRISBURG PA  CLOUDY    21   9  59 E3        30.63F                  
BALTIMORE      CLOUDY    21  12  68 CALM      30.65F                  
ANNAPOLIS      CLOUDY    23  17  78 CALM      30.66F                  
ANDREWS AFB    CLOUDY    23  12  63 S5        30.68S                  
PHILADELPHIA   CLOUDY    24  14  65 W3        30.70F                  
HENDERSON NC   MIX PCPN  28  17  62 CALM      30.62R                  
GREENSBORO     CLOUDY    30  18  60 NE3       30.57S                  
ROCKY MOUNT    CLOUDY    31  18  58 N7        30.63R                  
$$

VAZ100-011100-
MARINE
  
STATION/POSITION TIME  TEMP    WIND        PRES    WAVE   SWELL
                       AIR SEA DIR/SP/G            HT/PER HT/PER
                 (UTC) (F)     (DEG/KT/KT) (MB)    (FT/S) (FT/S)
BRANDYWINE LGT   1000      29   30/  3/  4 1039.2F
CAPE MAY NJ      1000   22 31   40/  1/  2 1039.2F
LEWES DE         1000   22 30   CALM  /  1 1039.0S
15NM E FENWICK I 1000   29 33              1039.1R   2/ 9
OCEAN-CITY-INLET 1000      32   20/  1/  2 1038.7F
WACHAPREAGUE VA  1000   23 33  360/  4/  5 1038.5R
THOMAS POINT MD  1000   27 31  130/  6/  7 1039.4F
COVE POINT MD    1000   25      CALM  /  1 1038.4R
SOLOMONS ISLAND  1000      33                N/A
BISHOPS HEAD MD  1000   26 31   90/  4/  5 1038.4R
CAMBRIDGE MD     1000   21 32  110/  3/  3 1038.8F
LEWISETTA VA     1000      33     CALM     1038.6R
RAPPAHANNOCK LGT 1000           20/ 11/ 12 1039.0R
STINGRAY PT      1000   28      60/  8/  8   N/A
YORK RVR RNG VA  1000   29      50/ 11/ 12 1037.4F
YORKTOWN VA      1000   27 33   30/  5/  6 1037.9S
DOMINION TERM VA 1000   29      50/  5/  7 1037.7F
KIPTOPEKE VA     1000      36   30/  5/  7   N/A
CHES BAY BRIDGE  1000      33   20/ 10/ 11 1037.2F
CAPE HENRY VA    1000   32      20/ 10/ 12 1036.1F
CHESAPEAKE LGHT  0900   34      50/ 15/ 16 1037.6F
WILLOUBY STN VA  1000           30/ 12/ 14 1038.1F
S CRANEY ISL VA  1000           30/  8/  9 1037.6F
CAPE HENRY BUOY  1000      35                N/A     3/10
1ST LANDING BUOY 1000   31      20/ 10/ 12 1037.3F
OFFSHORE WE BUOY 1000      37                N/A     3/10   2/10
64NM E OF VA BCH 1000   50 64   60/ 14/ 17 1035.5F   4/10   2/10
DUCK PIER NC     1000   36 34   20/ 12/ 13 1035.5R
44100 DUCK FRF   1000      36                N/A     4/ 4   2/11
44056 DUCK FRF   1000      34                N/A     4/10   2/11
OREGON INLET NC  1000   36 38  350/ 10/ 12 1035.3S
HATTERAS NC      1000      39   20/  9/ 10 1035.2R
CAPE LOOKOUT NC  0900   38      10/ 11/ 13 1034.4F
$$

Return to Home page


Western Regional Climate Center, wrcc@dri.edu